Waarnemingen

Advertentie
Mijn weer
Laupheim, Duitsland (10837): temperatuur & dauwpunt: 18.02.2017 09:00:00 - 24.02.2017 09:00:00 (CET)Laupheim, Duitsland (10837): windsnelheid & windstoten: 18.02.2017 09:00:00 - 24.02.2017 09:00:00 (CET)Laupheim, Duitsland (10837): windrichting: 18.02.2017 09:00:00 - 24.02.2017 09:00:00 (CET)Laupheim, Duitsland (10837): luchtdruk: 18.02.2017 09:00:00 - 24.02.2017 09:00:00 (CET)Laupheim, Duitsland (10837): zicht: 18.02.2017 09:00:00 - 24.02.2017 09:00:00 (CET)
Datum & Tijd tt [°C] td [°C] ff [km/u] ff [kn] fx [km/u] fx [kn] dd ppp [hPa] vv [km]
24.02.2017 09:00:00 4,7 -2,3 22 12 - - W 1012,4 30
24.02.2017 08:00:00 4,3 -2,3 22 12 - - WZW 1011,4 30
24.02.2017 07:00:00 4,6 -2,2 22 12 - - WZW 1010,5 25
24.02.2017 06:00:00 4,8 -2,6 22 12 - - W 1009,7 20
24.02.2017 05:00:00 5,7 -1,0 25 14 50 27 W 1008,3 20
24.02.2017 04:00:00 6,2 -1,1 36 19 - - W 1007,2 25
24.02.2017 03:00:00 6,4 -0,9 32 18 58 31 W 1006,3 25
24.02.2017 02:00:00 6,5 0,4 32 18 68 37 W 1005,2 25
24.02.2017 01:00:00 7,4 2,6 22 12 - - NW 1004,1 25
24.02.2017 00:00:00 10,0 2,3 36 19 68 37 WZW 1002,4 30
23.02.2017 23:00:00 11,2 1,2 54 29 79 43 W 1001,7 30
23.02.2017 22:00:00 11,7 -0,4 43 23 - - W 1001,5 30
23.02.2017 21:00:00 12,8 -1,8 47 25 68 37 W 1000,7 30
23.02.2017 20:00:00 13,5 -2,6 50 27 83 45 W 1000,0 45
23.02.2017 19:00:00 13,9 -3,4 47 25 - - W 999,6 45
23.02.2017 18:00:00 15,3 -3,0 43 23 68 37 WZW 998,8 45
23.02.2017 17:00:00 16,1 -2,0 40 21 72 39 WZW 998,7 45
23.02.2017 16:00:00 16,5 -2,0 40 21 - - WZW 999,8 45
23.02.2017 15:00:00 16,3 -1,6 40 21 61 33 ZW 1000,8 45
23.02.2017 14:00:00 15,5 -1,6 40 21 61 33 WZW 1002,7 45
23.02.2017 13:00:00 14,8 -2,5 43 23 - - WZW 1004,1 40
23.02.2017 12:00:00 14,2 -0,9 32 18 50 27 WZW 1005,5 40
23.02.2017 11:00:00 11,0 2,9 14 8 - - ZW 1007,2 35
23.02.2017 10:00:00 8,4 2,5 22 12 - - ZW 1008,7 35
23.02.2017 09:00:00 6,9 2,4 22 12 - - ZW 1009,9 30
23.02.2017 08:00:00 5,3 2,4 14 8 - - ZZW 1011,2 30
23.02.2017 07:00:00 5,5 2,8 14 8 - - ZZW 1011,7 25
23.02.2017 06:00:00 7,2 3,0 18 10 - - WZW 1011,8 25
23.02.2017 05:00:00 6,0 3,0 18 10 - - ZW 1012,4 25
23.02.2017 04:00:00 7,0 3,2 18 10 - - ZW 1012,8 30
23.02.2017 03:00:00 7,6 3,1 11 6 - - WZW 1013,1 30
23.02.2017 02:00:00 7,4 2,7 18 10 - - WZW 1013,5 30
23.02.2017 01:00:00 7,4 2,8 22 12 - - WZW 1014,0 30
23.02.2017 00:00:00 7,4 3,1 25 14 - - ZW 1014,1 30
22.02.2017 23:00:00 7,4 3,1 25 14 47 25 ZW 1014,3 30
22.02.2017 22:00:00 7,7 3,5 25 14 - - WZW 1014,3 30
22.02.2017 21:00:00 7,6 3,5 25 14 - - ZW 1014,3 30
22.02.2017 20:00:00 7,7 3,4 22 12 - - ZW 1014,6 30
22.02.2017 19:00:00 7,8 3,3 22 12 - - ZW 1014,4 35
22.02.2017 18:00:00 8,4 3,4 25 14 - - WZW 1014,2 45
22.02.2017 17:00:00 8,8 3,5 25 14 47 25 WZW 1014,5 50
22.02.2017 16:00:00 9,2 3,5 29 16 - - WZW 1014,3 50
22.02.2017 15:00:00 9,0 3,8 29 16 47 25 WZW 1014,7 50
22.02.2017 14:00:00 9,2 3,8 32 18 50 27 WZW 1015,3 40
22.02.2017 13:00:00 9,3 3,7 29 16 - - WZW 1015,5 40
22.02.2017 12:00:00 9,4 4,1 32 18 50 27 WZW 1015,8 40
22.02.2017 11:00:00 9,5 4,1 36 19 54 29 WZW 1016,0 40
22.02.2017 10:00:00 9,6 4,8 32 18 - - WZW 1015,7 40
22.02.2017 09:00:00 8,7 5,1 29 16 47 25 WZW 1016,0 40
22.02.2017 08:00:00 8,4 5,4 29 16 47 25 ZW 1015,6 30
22.02.2017 07:00:00 8,2 5,7 25 14 - - WZW 1016,0 25
22.02.2017 06:00:00 8,3 6,1 18 10 - - ZW 1016,3 30
22.02.2017 05:00:00 8,2 6,5 18 10 - - WZW 1016,7 30
22.02.2017 04:00:00 8,2 6,3 14 8 - - ZW 1017,0 30
22.02.2017 03:00:00 8,2 6,3 22 12 - - ZW 1017,6 30
22.02.2017 02:00:00 8,2 6,3 22 12 - - ZW 1018,1 30
22.02.2017 01:00:00 8,2 6,4 22 12 - - ZW 1018,6 30
22.02.2017 00:00:00 8,5 6,5 22 12 - - ZW 1018,7 30
21.02.2017 23:00:00 8,4 6,6 18 10 - - WZW 1018,7 30
21.02.2017 22:00:00 8,6 6,8 14 8 - - ZW 1018,9 25
21.02.2017 21:00:00 8,7 6,8 15 8 - - ZW 1019,0 10
21.02.2017 20:00:00 8,7 6,9 14 8 - - ZW 1019,0 18
21.02.2017 19:00:00 8,7 7,1 18 10 - - ZW 1018,8 15
21.02.2017 18:00:00 8,6 7,5 11 6 - - ZW 1018,8 12
21.02.2017 17:00:00 8,9 7,6 14 8 - - WZW 1018,4 12
21.02.2017 16:00:00 9,2 7,3 22 12 - - WZW 1018,3 8
21.02.2017 15:00:00 8,8 7,6 18 10 - - WZW 1018,4 18
21.02.2017 14:00:00 9,2 7,1 25 14 - - WZW 1018,3 20
21.02.2017 13:00:00 9,3 6,6 29 16 - - WZW 1018,4 20
21.02.2017 12:00:00 8,8 6,7 29 16 47 25 WZW 1018,5 6
21.02.2017 11:00:00 7,8 6,1 25 14 - - WZW 1018,7 12
21.02.2017 10:00:00 7,3 6,0 25 14 - - WZW 1018,6 15
21.02.2017 09:00:00 7,3 6,0 29 16 47 25 WZW 1018,8 15
21.02.2017 08:00:00 7,1 5,5 25 14 - - ZW 1018,4 18
21.02.2017 07:00:00 6,7 5,4 25 14 - - ZW 1018,6 15
21.02.2017 06:00:00 6,5 5,2 22 12 - - ZW 1019,0 8
21.02.2017 05:00:00 6,4 5,1 25 14 - - WZW 1019,2 8
21.02.2017 04:00:00 6,4 4,8 25 14 - - WZW 1019,8 18
21.02.2017 03:00:00 6,2 4,9 25 14 - - ZW 1020,1 18
21.02.2017 02:00:00 6,1 4,8 29 16 - - ZW 1020,7 8
21.02.2017 01:00:00 6,2 4,7 25 14 - - ZW 1021,0 15
21.02.2017 00:00:00 5,7 4,9 25 14 - - ZW 1021,2 4,0
20.02.2017 23:00:00 5,6 4,4 25 14 - - ZW 1021,4 4,0
20.02.2017 22:00:00 5,8 4,0 22 12 - - WZW 1021,6 8
20.02.2017 21:00:00 6,2 3,3 22 12 - - ZW 1021,5 8
20.02.2017 20:00:00 6,8 2,5 18 10 - - WZW 1021,4 18
20.02.2017 19:00:00 7,0 2,3 18 10 - - WZW 1021,4 40
20.02.2017 18:00:00 7,4 2,3 22 12 - - WZW 1021,4 30
20.02.2017 17:00:00 7,7 2,3 22 12 - - WZW 1021,3 30
20.02.2017 16:00:00 8,0 1,9 25 14 - - WZW 1021,6 30
20.02.2017 15:00:00 8,1 1,5 25 14 - - WZW 1022,1 30
20.02.2017 14:00:00 7,8 0,9 22 12 - - WZW 1022,8 30
20.02.2017 13:00:00 7,9 1,4 22 12 - - WZW 1023,1 25
20.02.2017 12:00:00 6,8 1,4 22 12 - - WZW 1024,5 25
20.02.2017 11:00:00 6,3 1,5 18 10 - - WZW 1024,8 18
20.02.2017 10:00:00 4,7 1,0 18 10 - - WZW 1025,1 15
20.02.2017 09:00:00 4,0 1,0 14 8 - - ZW 1025,2 12
20.02.2017 08:00:00 3,9 0,7 14 8 - - ZW 1024,9 10
20.02.2017 07:00:00 3,7 0,7 11 6 - - ZW 1024,6 10
20.02.2017 06:00:00 3,7 0,8 11 6 - - ZW 1024,6 12
20.02.2017 05:00:00 3,6 0,9 11 6 - - ZW 1024,5 12
20.02.2017 04:00:00 3,6 1,0 11 6 - - ZW 1024,8 12
20.02.2017 03:00:00 3,9 1,0 14 8 - - WZW 1024,7 15
20.02.2017 02:00:00 4,3 1,1 11 6 - - ZW 1024,9 15
20.02.2017 01:00:00 4,2 1,3 11 6 - - ZW 1025,2 15
20.02.2017 00:00:00 4,2 1,5 7 4 - - ZW 1025,4 12
19.02.2017 23:00:00 4,0 1,3 11 6 - - ZW 1025,2 12
19.02.2017 22:00:00 3,8 1,2 4 2 - - W 1024,8 12
19.02.2017 21:00:00 4,4 1,3 7 4 - - ZW 1024,1 12
19.02.2017 20:00:00 4,2 1,0 7 4 - - ZW 1024,1 15
19.02.2017 19:00:00 5,0 1,1 11 6 - - WZW 1023,7 15
19.02.2017 18:00:00 5,7 1,0 11 6 - - WZW 1023,0 15
19.02.2017 17:00:00 6,5 1,2 14 8 - - ZW 1023,1 16
19.02.2017 16:00:00 6,1 1,7 14 8 - - WZW 1023,6 17
19.02.2017 15:00:00 5,8 1,4 14 8 - - ZW 1024,1 15
19.02.2017 14:00:00 4,4 1,4 14 8 - - ZW 1024,9 12
19.02.2017 13:00:00 3,1 1,1 11 6 - - ZZW 1025,9 8
19.02.2017 12:00:00 0,6 0,3 14 8 - - WZW 1027,1 5
19.02.2017 11:00:00 -0,3 -0,6 14 8 - - WZW 1027,4 3,2
19.02.2017 10:00:00 -0,9 -1,2 18 10 - - WZW 1027,5 0,2
19.02.2017 09:00:00 -1,5 -1,9 11 6 - - WZW 1027,7 0,1
19.02.2017 08:00:00 -1,7 -2,1 7 4 - - ZZW 1027,5 0,1
19.02.2017 07:00:00 -1,7 -2,1 7 4 - - ZW 1027,3 0,1
19.02.2017 06:00:00 -2,3 -2,7 7 4 - - WZW 1027,7 0,1
19.02.2017 05:00:00 -2,5 -2,9 7 4 - - Z 1027,9 0,1
19.02.2017 04:00:00 -2,4 -2,8 4 2 - - ZZW 1028,2 0,1
19.02.2017 03:00:00 -2,5 -2,9 4 2 - - Z 1028,2 0,1
19.02.2017 02:00:00 -2,2 -2,5 4 2 - - NNO 1028,3 0,1
19.02.2017 01:00:00 -2,1 -2,4 0 0 - - N 1028,4 1,7
19.02.2017 00:00:00 -1,7 -2,1 4 2 - - ZW 1028,4 2,8
18.02.2017 23:00:00 0,0 -0,7 0 0 - - N 1028,0 6
18.02.2017 22:00:00 0,8 -0,1 7 4 - - OZO 1027,8 8
18.02.2017 21:00:00 1,6 0,3 7 4 - - O 1027,6 10
18.02.2017 20:00:00 1,9 -0,1 7 4 - - OZO 1027,7 15
18.02.2017 19:00:00 3,5 0,1 7 4 - - O 1027,4 20
18.02.2017 18:00:00 4,5 -0,6 7 4 - - ONO 1027,0 20
18.02.2017 17:00:00 5,8 -0,3 11 6 - - ONO 1026,3 20
18.02.2017 16:00:00 6,2 0,1 11 6 - - ONO 1026,2 20
18.02.2017 15:00:00 6,4 -1,0 11 6 - - NO 1026,2 18
18.02.2017 14:00:00 5,9 0,4 7 4 - - O 1026,6 12
18.02.2017 13:00:00 5,8 1,4 7 4 - - NO 1027,3 10
18.02.2017 12:00:00 5,1 1,8 4 2 - - NO 1028,0 7
18.02.2017 11:00:00 4,1 2,3 4 2 - - ZZW 1028,5 7
18.02.2017 10:00:00 3,0 2,2 7 4 - - ZW 1028,8 2,8
18.02.2017 09:00:00 2,3 1,8 7 4 - - ZW 1029,0 1,8

tt = temperatuur
td = dauwpunt
ff = windsnelheid
fx = windstoten
dd = windrichting
ppp = luchtdruk
vv = zicht

Weerstations in de omgeving